Regional Weather Roundup
Issued by NWS Kansas City/Pleasant Hill, MO

Home | Current Version | Previous Version | Graphics & Text | Print | Product List | Glossary Off
Versions: 1 2 3 4 5 6 7 8 9 10 11 12 13 14 15 16 17 18 19 20 21 22 23 24 25 26 27 28 29 30 31 32 33 34 35 36 37 38 39 40 41 42 43 44 45 46 47 48 49 50

000
ASUS43 KEAX 290104
RWREAX

WEATHER ROUNDUP FOR EASTERN KANSAS AND NORTHWEST MISSOURI
NATIONAL WEATHER SERVICE KANSAS CITY/PLEASANT HILL MO
800 PM CDT THU MAY 28 2015

KSZ040-057-103>105-MOZ028-029-037-043-290200-
...KANSAS CITY METROPOLITAN AREA...

CITY           SKY/WX    TMP DP  RH WIND       PRES   REMARKS
K.C. INTL      MOCLDY    70  64  81 SE6       29.97S
K.C. DOWNTOWN  MOCLDY    72  62  71 SE5       29.96S
LEES SUMMIT    MOCLDY    69  64  84 E6        29.97F
OLATHE - IXD   PTCLDY    70  63  78 SE8       29.98S
OLATHE - OJC   MOCLDY    69  63  81 SE6       29.96S
LAWRENCE       CLEAR     71  63  75 SE10      29.96R

$$

MOZ001>008-011>017-020>025-030>033-038>040-044>046-053-054-290200-
...NORTHERN AND CENTRAL MISSOURI...

CITY           SKY/WX    TMP DP  RH WIND       PRES   REMARKS
ST. JOSEPH     MOCLDY    71  65  81 SE8       29.97R
MOSBY          CLOUDY    70  64  83 E6        29.97S
WHITEMAN AFB   MOCLDY    68  66  94 E3        29.98F
CLINTON        NOT AVBL
SEDALIA        CLOUDY    70  64  81 E7        30.01F
WARSAW         NOT AVBL
CHILLICOTHE      N/A     69  65  86 E6        30.00R
KIRKSVILLE     CLOUDY    66  65  96 E9        30.03F

$$

MOZ041-047>049-056>058-063>065-088>090-097-290200-
...EASTERN AND SOUTHERN MISSOURI...

CITY           SKY/WX    TMP DP  RH WIND       PRES   REMARKS
ST. LOUIS INTL MOCLDY    81  65  58 S12       30.04S
SPIRIT OF STL  MOCLDY   N/A N/A N/A CALM      30.02F
COLUMBIA       HVY RAIN  69  66  90 E5        30.03F FOG
JEFFERSON CITY LGT RAIN  70  66  87 CALM      30.02S
ROLLA          CLOUDY    73  66  78 SE3       30.01F
OSAGE BEACH    CLOUDY    64  63  94 E6        30.01F
SPRINGFIELD    PTCLDY    71  67  87 NE8       29.98F
BRANSON        MOCLDY    72  64  78 S7        30.01F
JOPLIN         MOCLDY    73  65  75 W3        29.97S
WEST PLAINS    CLOUDY    73  65  75 SE12      30.02F

$$

IAZ060-094-KSZ022-034>040-054-083-096-NEZ052-066-093-290200-
...KANSAS...SOUTHEAST NEBRASKA AND IOWA...

CITY           SKY/WX    TMP DP  RH WIND       PRES   REMARKS
TOPEKA         CLEAR     73  64  73 SE6       29.96R
MANHATTAN      CLEAR     76  64  66 S7        29.93R
EMPORIA        CLEAR     72  64  76 SE7       29.94R
CHANUTE        PTCLDY    71  66  84 S5        29.94S
WICHITA        MOCLDY    77  65  66 SE9       29.91S
OMAHA          MOCLDY    71  63  75 SE14      29.91F
LINCOLN        PTCLDY    73  65  75 SE15      29.90S
FALLS CITY     PTCLDY    71  62  73 S8        29.93S
LAMONI         CLOUDY    74  66  76 SE7       29.98S
DES MOINES     CLOUDY    73  64  73 SE16G24   29.97F

$$




USA.gov is the U.S. government's official web portal to all federal, state and local government web resources and services.